{"data":{"norad_id":64504,"intl_designator":"2025-134E","name":"KUIPER-00043","alt_names":[],"object_type":"PAYLOAD","status":"ACTIVE","operator":null,"country":"US","launch_date":"2025-06-23","launch_site_code":"AFETR","launch_vehicle":null,"mission":null,"orbit_class":"UNKNOWN","rcs_meters":null,"size_class":null,"mass_kg":null,"dimensions":null,"purposes":[],"wikipedia_slug":null,"has_3d_model":false,"image_url":null,"decayed_at":null,"tle_current":{"epoch":"2026-09-21T21:44:17.105856Z","epoch_age_seconds":60021,"freshness":"FRESH","line1":"1 64504U 25134E   26264.90575354  .00001663  00000+0  24709-3 0  9992","line2":"2 64504  51.9019  85.3943 0000752 116.5664 243.5375 14.79931465 69138","mean_motion":14.79931465,"eccentricity":7.52e-5,"inclination_deg":51.9019,"raan_deg":85.3943,"arg_perigee_deg":116.5664,"mean_anomaly_deg":243.5375,"bstar":0.00024709,"rev_number":6913,"period_min":97.30180309397,"perigee_km":629.0134974477,"apogee_km":630.06745213991,"semimajor_km":7007.6774747938,"source":"CELESTRAK","updated_at":"2026-09-22T09:00:29.806808Z"}}}